Time,TemperatureF,DewpointF,PressureIn,WindDirection,WindDirectionDegrees,WindSpeedMPH,WindSpeedGustMPH,Humidity,HourlyPrecipIn,Conditions,Clouds,dailyrainin,SolarRadiationWatts/m^2,SoftwareType,DateUTC
2013-01-13 00:00:00,58.4,54.9,29.75,ESE,113,1.0,-999.0,88,0.00,,,0.00,0,Wunderground v.1.15,2013-01-13 06:00:00,
2013-01-13 00:05:00,58.4,54.9,29.75,ESE,113,1.0,-999.0,88,0.00,,,0.00,0,Wunderground v.1.15,2013-01-13 06:05:00,
2013-01-13 00:10:00,58.3,55.1,29.75,ESE,113,0.0,-999.0,89,0.00,,,0.00,0,Wunderground v.1.15,2013-01-13 06:10:00,
2013-01-13 00:15:00,58.2,55.3,29.74,East,90,1.0,-999.0,90,0.00,,,0.00,0,Wunderground v.1.15,2013-01-13 06:15:00,
2013-01-13 00:20:00,58.0,55.1,29.74,SE,135,3.0,-999.0,90,0.00,,,0.00,0,Wunderground v.1.15,2013-01-13 06:20:00,
2013-01-13 00:25:00,58.0,55.4,29.74,SE,135,5.0,-999.0,91,0.00,,,0.00,0,Wunderground v.1.15,2013-01-13 06:25:00,
2013-01-13 00:30:00,57.9,55.3,29.74,East,90,2.0,-999.0,91,0.00,,,0.00,0,Wunderground v.1.15,2013-01-13 06:30:00,
2013-01-13 00:35:00,57.9,55.3,29.74,SE,135,2.0,-999.0,91,0.00,,,0.00,0,Wunderground v.1.15,2013-01-13 06:35:00,
2013-01-13 00:40:00,57.8,55.2,29.74,ESE,113,1.0,-999.0,91,0.00,,,0.00,0,Wunderground v.1.15,2013-01-13 06:40:00,
2013-01-13 00:45:00,57.8,55.2,29.74,SE,135,2.0,-999.0,91,0.00,,,0.00,0,Wunderground v.1.15,2013-01-13 06:45:00,
2013-01-13 00:50:00,57.9,55.3,29.73,SE,135,2.0,-999.0,91,0.00,,,0.00,0,Wunderground v.1.15,2013-01-13 06:50:00,
2013-01-13 00:55:00,57.9,55.3,29.74,SE,135,1.0,-999.0,91,0.00,,,0.00,0,Wunderground v.1.15,2013-01-13 06:55:00,
2013-01-13 01:00:00,57.9,55.3,29.73,NNE,23,2.0,-999.0,91,0.00,,,0.00,0,Wunderground v.1.15,2013-01-13 07:00:00,
2013-01-13 01:05:00,57.9,55.3,29.73,NNE,23,1.0,-999.0,91,0.00,,,0.00,0,Wunderground v.1.15,2013-01-13 07:05:00,
2013-01-13 01:10:00,57.8,55.2,29.73,NE,45,7.0,-999.0,91,0.00,,,0.00,0,Wunderground v.1.15,2013-01-13 07:10:00,
2013-01-13 01:15:00,57.8,55.2,29.73,NNE,23,7.0,-999.0,91,0.00,,,0.00,0,Wunderground v.1.15,2013-01-13 07:15:00,
2013-01-13 01:20:00,57.7,55.1,29.73,NNE,23,6.0,-999.0,91,0.00,,,0.00,0,Wunderground v.1.15,2013-01-13 07:20:00,
2013-01-13 01:25:00,57.7,55.4,29.73,SSE,158,1.0,-999.0,92,0.00,,,0.00,0,Wunderground v.1.15,2013-01-13 07:25:00,
2013-01-13 01:30:00,57.7,55.4,29.72,NW,315,2.0,-999.0,92,0.00,,,0.00,0,Wunderground v.1.15,2013-01-13 07:30:00,
2013-01-13 01:35:00,57.6,55.3,29.72,NE,45,4.0,-999.0,92,0.00,,,0.00,0,Wunderground v.1.15,2013-01-13 07:35:00,
2013-01-13 01:40:00,57.6,55.3,29.72,NNE,23,2.0,-999.0,92,0.00,,,0.00,0,Wunderground v.1.15,2013-01-13 07:40:00,
2013-01-13 01:45:00,57.6,55.3,29.72,ENE,68,2.0,-999.0,92,0.00,,,0.00,0,Wunderground v.1.15,2013-01-13 07:45:00,
2013-01-13 01:50:00,57.6,55.3,29.72,SE,135,3.0,-999.0,92,0.00,,,0.00,0,Wunderground v.1.15,2013-01-13 07:50:00,
2013-01-13 01:55:00,57.6,55.3,29.72,NE,45,5.0,-999.0,92,0.00,,,0.00,0,Wunderground v.1.15,2013-01-13 07:55:00,
2013-01-13 02:00:00,57.7,55.1,29.72,NE,45,4.0,-999.0,91,0.00,,,0.00,0,Wunderground v.1.15,2013-01-13 08:00:00,
2013-01-13 02:05:00,57.8,55.2,29.72,SSE,158,0.0,-999.0,91,0.00,,,0.00,0,Wunderground v.1.15,2013-01-13 08:05:00,
2013-01-13 02:10:00,57.7,55.1,29.72,North,0,1.0,-999.0,91,0.00,,,0.00,0,Wunderground v.1.15,2013-01-13 08:10:00,
2013-01-13 02:15:00,57.7,55.1,29.71,NE,45,3.0,-999.0,91,0.00,,,0.00,0,Wunderground v.1.15,2013-01-13 08:15:00,
2013-01-13 02:20:00,57.8,54.9,29.71,ENE,68,5.0,-999.0,90,0.00,,,0.00,0,Wunderground v.1.15,2013-01-13 08:20:00,
2013-01-13 02:25:00,57.8,54.9,29.71,ENE,68,3.0,-999.0,90,0.00,,,0.00,0,Wunderground v.1.15,2013-01-13 08:25:00,
2013-01-13 02:30:00,57.7,54.8,29.72,NE,45,1.0,-999.0,90,0.00,,,0.00,0,Wunderground v.1.15,2013-01-13 08:30:00,
2013-01-13 02:35:00,57.7,54.8,29.72,ESE,113,0.0,-999.0,90,0.00,,,0.00,0,Wunderground v.1.15,2013-01-13 08:35:00,
2013-01-13 02:40:00,57.7,54.5,29.71,ENE,68,1.0,-999.0,89,0.00,,,0.00,0,Wunderground v.1.15,2013-01-13 08:40:00,
2013-01-13 02:45:00,57.8,54.6,29.71,SSW,203,1.0,-999.0,89,0.00,,,0.00,0,Wunderground v.1.15,2013-01-13 08:45:00,
2013-01-13 02:50:00,57.8,54.3,29.71,SE,135,0.0,-999.0,88,0.00,,,0.00,0,Wunderground v.1.15,2013-01-13 08:50:00,
2013-01-13 02:55:00,57.8,54.3,29.71,SSE,158,1.0,-999.0,88,0.00,,,0.00,0,Wunderground v.1.15,2013-01-13 08:55:00,
2013-01-13 03:00:00,57.8,54.3,29.71,ESE,113,0.0,-999.0,88,0.00,,,0.00,0,Wunderground v.1.15,2013-01-13 09:00:00,
2013-01-13 03:05:00,57.6,54.1,29.71,WSW,248,1.0,-999.0,88,0.00,,,0.00,0,Wunderground v.1.15,2013-01-13 09:05:00,
2013-01-13 03:10:00,57.6,53.8,29.72,WSW,248,0.0,-999.0,87,0.00,,,0.00,0,Wunderground v.1.15,2013-01-13 09:10:00,
2013-01-13 03:15:00,57.5,53.7,29.72,WSW,248,1.0,-999.0,87,0.00,,,0.00,0,Wunderground v.1.15,2013-01-13 09:15:00,
2013-01-13 03:20:00,57.4,53.6,29.72,WSW,248,1.0,-999.0,87,0.00,,,0.00,0,Wunderground v.1.15,2013-01-13 09:20:00,
2013-01-13 03:25:00,57.4,53.6,29.72,SE,135,3.0,-999.0,87,0.00,,,0.00,0,Wunderground v.1.15,2013-01-13 09:25:00,
2013-01-13 03:30:00,57.7,53.5,29.72,SE,135,8.0,-999.0,86,0.00,,,0.00,0,Wunderground v.1.15,2013-01-13 09:30:00,
2013-01-13 03:35:00,57.9,53.7,29.72,ESE,113,3.0,-999.0,86,0.00,,,0.00,0,Wunderground v.1.15,2013-01-13 09:35:00,
2013-01-13 03:40:00,57.6,53.4,29.72,ESE,113,1.0,-999.0,86,0.00,,,0.00,0,Wunderground v.1.15,2013-01-13 09:40:00,
2013-01-13 03:45:00,57.6,53.8,29.72,SE,135,3.0,-999.0,87,0.00,,,0.00,0,Wunderground v.1.15,2013-01-13 09:45:00,
2013-01-13 03:50:00,57.6,53.8,29.73,ESE,113,2.0,-999.0,87,0.00,,,0.00,0,Wunderground v.1.15,2013-01-13 09:50:00,
2013-01-13 03:55:00,57.6,53.8,29.72,SE,135,1.0,-999.0,87,0.00,,,0.00,0,Wunderground v.1.15,2013-01-13 09:55:00,
2013-01-13 04:00:00,57.7,53.5,29.73,SE,135,4.0,-999.0,86,0.00,,,0.00,0,Wunderground v.1.15,2013-01-13 10:00:00,
2013-01-13 04:05:00,57.8,53.6,29.72,SE,135,3.0,-999.0,86,0.00,,,0.00,0,Wunderground v.1.15,2013-01-13 10:05:00,
2013-01-13 04:10:00,57.7,53.9,29.73,NE,45,1.0,-999.0,87,0.00,,,0.00,0,Wunderground v.1.15,2013-01-13 10:10:00,
2013-01-13 04:15:00,57.6,53.8,29.72,South,180,0.0,-999.0,87,0.00,,,0.00,0,Wunderground v.1.15,2013-01-13 10:15:00,
2013-01-13 04:20:00,57.4,53.6,29.73,South,180,0.0,-999.0,87,0.00,,,0.00,0,Wunderground v.1.15,2013-01-13 10:20:00,
2013-01-13 04:25:00,57.3,53.8,29.72,South,180,0.0,-999.0,88,0.00,,,0.00,0,Wunderground v.1.15,2013-01-13 10:25:00,
2013-01-13 04:30:00,57.3,53.8,29.73,NNW,338,1.0,-999.0,88,0.00,,,0.00,0,Wunderground v.1.15,2013-01-13 10:30:00,
2013-01-13 04:35:00,57.4,53.6,29.72,South,180,1.0,-999.0,87,0.00,,,0.00,0,Wunderground v.1.15,2013-01-13 10:35:00,
2013-01-13 04:40:00,57.7,53.9,29.73,South,180,3.0,-999.0,87,0.00,,,0.00,0,Wunderground v.1.15,2013-01-13 10:40:00,
2013-01-13 04:45:00,57.9,53.7,29.73,SE,135,4.0,-999.0,86,0.00,,,0.00,0,Wunderground v.1.15,2013-01-13 10:45:00,
2013-01-13 04:50:00,57.9,53.4,29.73,SE,135,2.0,-999.0,85,0.00,,,0.00,0,Wunderground v.1.15,2013-01-13 10:50:00,
2013-01-13 04:55:00,57.9,53.4,29.73,SE,135,3.0,-999.0,85,0.00,,,0.00,0,Wunderground v.1.15,2013-01-13 10:55:00,
2013-01-13 05:00:00,58.0,53.2,29.73,SE,135,3.0,-999.0,84,0.00,,,0.00,0,Wunderground v.1.15,2013-01-13 11:00:00,
2013-01-13 05:05:00,58.2,53.1,29.74,SE,135,8.0,-999.0,83,0.00,,,0.00,0,Wunderground v.1.15,2013-01-13 11:05:00,
2013-01-13 05:10:00,58.4,52.9,29.73,SE,135,8.0,-999.0,82,0.00,,,0.00,0,Wunderground v.1.15,2013-01-13 11:10:00,
2013-01-13 05:15:00,58.4,52.9,29.73,ESE,113,3.0,-999.0,82,0.00,,,0.00,0,Wunderground v.1.15,2013-01-13 11:15:00,
2013-01-13 05:20:00,58.3,52.8,29.73,ESE,113,5.0,-999.0,82,0.00,,,0.00,0,Wunderground v.1.15,2013-01-13 11:20:00,
2013-01-13 05:25:00,58.2,52.7,29.73,SE,135,2.0,-999.0,82,0.00,,,0.00,0,Wunderground v.1.15,2013-01-13 11:25:00,
2013-01-13 05:30:00,58.0,52.5,29.73,SE,135,3.0,-999.0,82,0.00,,,0.00,0,Wunderground v.1.15,2013-01-13 11:30:00,
2013-01-13 05:35:00,58.2,52.7,29.74,SE,135,7.0,-999.0,82,0.00,,,0.00,0,Wunderground v.1.15,2013-01-13 11:35:00,
2013-01-13 05:40:00,58.9,52.7,29.74,SE,135,13.0,-999.0,80,0.00,,,0.00,0,Wunderground v.1.15,2013-01-13 11:40:00,
2013-01-13 05:45:00,58.9,52.7,29.74,SE,135,13.0,-999.0,80,0.00,,,0.00,0,Wunderground v.1.15,2013-01-13 11:45:00,
2013-01-13 05:50:00,58.9,52.7,29.74,SE,135,10.0,-999.0,80,0.00,,,0.00,0,Wunderground v.1.15,2013-01-13 11:50:00,
2013-01-13 05:55:00,58.9,52.7,29.74,SE,135,7.0,-999.0,80,0.00,,,0.00,0,Wunderground v.1.15,2013-01-13 11:55:00,
2013-01-13 06:00:00,58.9,52.7,29.74,SE,135,6.0,-999.0,80,0.00,,,0.00,3,Wunderground v.1.15,2013-01-13 12:00:00,
2013-01-13 06:05:00,58.6,52.4,29.74,ESE,113,3.0,-999.0,80,0.00,,,0.00,8,Wunderground v.1.15,2013-01-13 12:05:00,
2013-01-13 06:10:00,58.5,52.4,29.74,SE,135,4.0,-999.0,80,0.00,,,0.00,10,Wunderground v.1.15,2013-01-13 12:10:00,
2013-01-13 06:15:00,58.4,51.9,29.75,South,180,5.0,-999.0,79,0.00,,,0.00,12,Wunderground v.1.15,2013-01-13 12:15:00,
2013-01-13 06:20:00,58.4,51.9,29.74,SSE,158,6.0,-999.0,79,0.00,,,0.00,15,Wunderground v.1.15,2013-01-13 12:20:00,
2013-01-13 06:25:00,58.4,51.9,29.75,SSE,158,5.0,-999.0,79,0.00,,,0.00,17,Wunderground v.1.15,2013-01-13 12:25:00,
2013-01-13 06:30:00,58.4,51.9,29.75,SE,135,4.0,-999.0,79,0.00,,,0.00,19,Wunderground v.1.15,2013-01-13 12:30:00,
2013-01-13 06:35:00,58.3,51.8,29.75,SSE,158,3.0,-999.0,79,0.00,,,0.00,28,Wunderground v.1.15,2013-01-13 12:35:00,
2013-01-13 06:40:00,58.7,52.2,29.75,South,180,4.0,-999.0,79,0.00,,,0.00,66,Wunderground v.1.15,2013-01-13 12:40:00,
2013-01-13 06:45:00,58.9,52.1,29.75,SE,135,2.0,-999.0,78,0.00,,,0.00,85,Wunderground v.1.15,2013-01-13 12:45:00,
2013-01-13 06:50:00,59.0,52.1,29.75,SSE,158,4.0,-999.0,78,0.00,,,0.00,106,Wunderground v.1.15,2013-01-13 12:50:00,
2013-01-13 06:55:00,59.2,52.3,29.75,SSE,158,4.0,-999.0,78,0.00,,,0.00,126,Wunderground v.1.15,2013-01-13 12:55:00,
2013-01-13 07:00:00,59.4,52.5,29.76,SSE,158,2.0,-999.0,78,0.00,,,0.00,148,Wunderground v.1.15,2013-01-13 13:00:00,
2013-01-13 07:05:00,59.6,52.4,29.75,SE,135,3.0,-999.0,77,0.00,,,0.00,175,Wunderground v.1.15,2013-01-13 13:05:00,
2013-01-13 07:10:00,59.7,52.8,29.75,West,270,3.0,-999.0,78,0.00,,,0.00,197,Wunderground v.1.15,2013-01-13 13:10:00,
2013-01-13 07:15:00,59.9,52.7,29.76,ESE,113,4.0,-999.0,77,0.00,,,0.00,222,Wunderground v.1.15,2013-01-13 13:15:00,
2013-01-13 07:20:00,60.1,52.9,29.76,South,180,4.0,-999.0,77,0.00,,,0.00,247,Wunderground v.1.15,2013-01-13 13:20:00,
2013-01-13 07:25:00,60.2,53.0,29.77,SSE,158,3.0,-999.0,77,0.00,,,0.00,267,Wunderground v.1.15,2013-01-13 13:25:00,
2013-01-13 07:30:00,60.4,53.2,29.77,NNE,23,2.0,-999.0,77,0.00,,,0.00,286,Wunderground v.1.15,2013-01-13 13:30:00,
2013-01-13 07:35:00,60.5,52.9,29.77,SSE,158,7.0,-999.0,76,0.00,,,0.00,306,Wunderground v.1.15,2013-01-13 13:35:00,
2013-01-13 07:40:00,60.4,52.8,29.77,SE,135,6.0,-999.0,76,0.00,,,0.00,325,Wunderground v.1.15,2013-01-13 13:40:00,
2013-01-13 07:45:00,60.6,52.6,29.78,East,90,5.0,-999.0,75,0.00,,,0.00,345,Wunderground v.1.15,2013-01-13 13:45:00,
2013-01-13 07:50:00,60.7,52.7,29.78,ESE,113,6.0,-999.0,75,0.00,,,0.00,364,Wunderground v.1.15,2013-01-13 13:50:00,
2013-01-13 07:55:00,60.8,53.2,29.77,NE,45,6.0,-999.0,76,0.00,,,0.00,382,Wunderground v.1.15,2013-01-13 13:55:00,
2013-01-13 08:00:00,61.4,53.0,29.77,SE,135,3.0,-999.0,74,0.00,,,0.00,398,Wunderground v.1.15,2013-01-13 14:00:00,
2013-01-13 08:05:00,62.0,53.2,29.77,SE,135,0.0,-999.0,73,0.00,,,0.00,416,Wunderground v.1.15,2013-01-13 14:05:00,
2013-01-13 08:10:00,62.4,54.0,29.78,SSE,158,1.0,-999.0,74,0.00,,,0.00,434,Wunderground v.1.15,2013-01-13 14:10:00,
2013-01-13 08:15:00,62.9,53.7,29.78,SW,225,1.0,-999.0,72,0.00,,,0.00,453,Wunderground v.1.15,2013-01-13 14:15:00,
2013-01-13 08:20:00,63.5,53.5,29.77,South,180,4.0,-999.0,70,0.00,,,0.00,471,Wunderground v.1.15,2013-01-13 14:20:00,
2013-01-13 08:25:00,63.7,52.9,29.77,ESE,113,3.0,-999.0,68,0.00,,,0.00,490,Wunderground v.1.15,2013-01-13 14:25:00,
2013-01-13 08:30:00,63.9,53.5,29.77,SE,135,2.0,-999.0,69,0.00,,,0.00,507,Wunderground v.1.15,2013-01-13 14:30:00,
2013-01-13 08:35:00,63.8,52.2,29.77,SE,135,8.0,-999.0,66,0.00,,,0.00,524,Wunderground v.1.15,2013-01-13 14:35:00,
2013-01-13 08:40:00,64.3,52.3,29.77,SSE,158,4.0,-999.0,65,0.00,,,0.00,539,Wunderground v.1.15,2013-01-13 14:40:00,
2013-01-13 08:45:00,64.6,52.1,29.77,SE,135,6.0,-999.0,64,0.00,,,0.00,556,Wunderground v.1.15,2013-01-13 14:45:00,
2013-01-13 08:50:00,64.9,52.4,29.77,SE,135,8.0,-999.0,64,0.00,,,0.00,573,Wunderground v.1.15,2013-01-13 14:50:00,
2013-01-13 08:55:00,64.9,52.0,29.77,SE,135,5.0,-999.0,63,0.00,,,0.00,588,Wunderground v.1.15,2013-01-13 14:55:00,
2013-01-13 09:00:00,64.8,53.2,29.78,North,0,4.0,-999.0,66,0.00,,,0.00,603,Wunderground v.1.15,2013-01-13 15:00:00,
2013-01-13 09:05:00,64.4,52.8,29.77,SE,135,5.0,-999.0,66,0.00,,,0.00,617,Wunderground v.1.15,2013-01-13 15:05:00,
2013-01-13 09:10:00,63.9,53.5,29.77,NNE,23,6.0,-999.0,69,0.00,,,0.00,631,Wunderground v.1.15,2013-01-13 15:10:00,
2013-01-13 09:15:00,63.8,52.6,29.77,ENE,68,4.0,-999.0,67,0.00,,,0.00,644,Wunderground v.1.15,2013-01-13 15:15:00,
2013-01-13 09:20:00,64.5,53.7,29.78,SE,135,2.0,-999.0,68,0.00,,,0.00,657,Wunderground v.1.15,2013-01-13 15:20:00,
2013-01-13 09:25:00,64.3,53.1,29.77,North,0,6.0,-999.0,67,0.00,,,0.00,672,Wunderground v.1.15,2013-01-13 15:25:00,
2013-01-13 09:30:00,64.2,53.4,29.78,North,0,7.0,-999.0,68,0.00,,,0.00,686,Wunderground v.1.15,2013-01-13 15:30:00,
2013-01-13 09:35:00,64.0,53.2,29.77,NNE,23,9.0,-999.0,68,0.00,,,0.00,698,Wunderground v.1.15,2013-01-13 15:35:00,
2013-01-13 09:40:00,64.2,53.4,29.77,ENE,68,8.0,-999.0,68,0.00,,,0.00,710,Wunderground v.1.15,2013-01-13 15:40:00,
2013-01-13 09:45:00,64.7,53.9,29.77,NE,45,9.0,-999.0,68,0.00,,,0.00,722,Wunderground v.1.15,2013-01-13 15:45:00,
2013-01-13 09:50:00,64.7,53.9,29.77,NE,45,9.0,-999.0,68,0.00,,,0.00,733,Wunderground v.1.15,2013-01-13 15:50:00,
2013-01-13 09:55:00,65.1,53.9,29.77,NE,45,9.0,-999.0,67,0.00,,,0.00,745,Wunderground v.1.15,2013-01-13 15:55:00,
2013-01-13 10:00:00,65.2,53.1,29.76,NE,45,9.0,-999.0,65,0.00,,,0.00,755,Wunderground v.1.15,2013-01-13 16:00:00,
2013-01-13 10:05:00,65.5,54.2,29.76,ENE,68,7.0,-999.0,67,0.00,,,0.00,765,Wunderground v.1.15,2013-01-13 16:05:00,
2013-01-13 10:10:00,65.8,54.5,29.76,ENE,68,6.0,-999.0,67,0.00,,,0.00,773,Wunderground v.1.15,2013-01-13 16:10:00,
2013-01-13 10:15:00,66.0,53.9,29.76,ENE,68,6.0,-999.0,65,0.00,,,0.00,785,Wunderground v.1.15,2013-01-13 16:15:00,
2013-01-13 10:20:00,66.2,54.1,29.76,NE,45,6.0,-999.0,65,0.00,,,0.00,793,Wunderground v.1.15,2013-01-13 16:20:00,
2013-01-13 10:25:00,66.3,54.2,29.75,ENE,68,7.0,-999.0,65,0.00,,,0.00,802,Wunderground v.1.15,2013-01-13 16:25:00,
2013-01-13 10:30:00,66.4,54.3,29.75,NE,45,6.0,-999.0,65,0.00,,,0.00,809,Wunderground v.1.15,2013-01-13 16:30:00,
2013-01-13 10:35:00,66.3,53.8,29.76,NE,45,8.0,-999.0,64,0.00,,,0.00,815,Wunderground v.1.15,2013-01-13 16:35:00,
2013-01-13 10:40:00,66.3,53.8,29.76,NE,45,9.0,-999.0,64,0.00,,,0.00,823,Wunderground v.1.15,2013-01-13 16:40:00,
2013-01-13 10:45:00,66.4,54.7,29.75,NE,45,6.0,-999.0,66,0.00,,,0.00,828,Wunderground v.1.15,2013-01-13 16:45:00,
2013-01-13 10:50:00,66.6,54.5,29.75,NE,45,9.0,-999.0,65,0.00,,,0.00,833,Wunderground v.1.15,2013-01-13 16:50:00,
2013-01-13 10:55:00,66.8,54.7,29.75,NE,45,8.0,-999.0,65,0.00,,,0.00,838,Wunderground v.1.15,2013-01-13 16:55:00,
2013-01-13 11:00:00,67.0,54.8,29.75,NE,45,8.0,-999.0,65,0.00,,,0.00,842,Wunderground v.1.15,2013-01-13 17:00:00,
2013-01-13 11:05:00,66.9,53.9,29.75,NE,45,10.0,-999.0,63,0.00,,,0.00,848,Wunderground v.1.15,2013-01-13 17:05:00,
2013-01-13 11:10:00,67.2,54.6,29.74,NE,45,5.0,-999.0,64,0.00,,,0.00,853,Wunderground v.1.15,2013-01-13 17:10:00,
2013-01-13 11:15:00,67.5,55.7,29.74,NE,45,4.0,-999.0,66,0.00,,,0.00,855,Wunderground v.1.15,2013-01-13 17:15:00,
2013-01-13 11:20:00,68.0,54.9,29.74,ENE,68,5.0,-999.0,63,0.00,,,0.00,861,Wunderground v.1.15,2013-01-13 17:20:00,
2013-01-13 11:25:00,68.1,55.0,29.74,ENE,68,6.0,-999.0,63,0.00,,,0.00,861,Wunderground v.1.15,2013-01-13 17:25:00,
2013-01-13 11:30:00,68.0,54.5,29.73,NE,45,8.0,-999.0,62,0.00,,,0.00,867,Wunderground v.1.15,2013-01-13 17:30:00,
2013-01-13 11:35:00,67.9,55.3,29.73,NE,45,9.0,-999.0,64,0.00,,,0.00,870,Wunderground v.1.15,2013-01-13 17:35:00,
2013-01-13 11:40:00,68.2,54.2,29.72,NE,45,9.0,-999.0,61,0.00,,,0.00,871,Wunderground v.1.15,2013-01-13 17:40:00,
2013-01-13 11:45:00,68.5,54.5,29.72,NE,45,7.0,-999.0,61,0.00,,,0.00,872,Wunderground v.1.15,2013-01-13 17:45:00,
2013-01-13 11:50:00,69.0,54.5,29.72,NE,45,5.0,-999.0,60,0.00,,,0.00,869,Wunderground v.1.15,2013-01-13 17:50:00,
2013-01-13 11:55:00,69.2,52.8,29.72,ENE,68,7.0,-999.0,56,0.00,,,0.00,871,Wunderground v.1.15,2013-01-13 17:55:00,
2013-01-13 12:00:00,69.8,53.4,29.72,NE,45,3.0,-999.0,56,0.00,,,0.00,871,Wunderground v.1.15,2013-01-13 18:00:00,
2013-01-13 12:05:00,70.1,54.6,29.72,North,0,5.0,-999.0,58,0.00,,,0.00,868,Wunderground v.1.15,2013-01-13 18:05:00,
2013-01-13 12:10:00,68.9,53.0,29.72,North,0,10.0,-999.0,57,0.00,,,0.00,869,Wunderground v.1.15,2013-01-13 18:10:00,
2013-01-13 12:15:00,68.7,54.7,29.72,NNE,23,2.0,-999.0,61,0.00,,,0.00,867,Wunderground v.1.15,2013-01-13 18:15:00,
2013-01-13 12:20:00,69.6,54.2,29.71,ENE,68,6.0,-999.0,58,0.00,,,0.00,867,Wunderground v.1.15,2013-01-13 18:20:00,
2013-01-13 12:25:00,69.6,54.6,29.71,NE,45,6.0,-999.0,59,0.00,,,0.00,855,Wunderground v.1.15,2013-01-13 18:25:00,
2013-01-13 12:30:00,69.2,55.2,29.71,NE,45,7.0,-999.0,61,0.00,,,0.00,854,Wunderground v.1.15,2013-01-13 18:30:00,
2013-01-13 12:35:00,69.3,54.8,29.71,NE,45,8.0,-999.0,60,0.00,,,0.00,842,Wunderground v.1.15,2013-01-13 18:35:00,
2013-01-13 12:40:00,69.3,54.8,29.71,ENE,68,7.0,-999.0,60,0.00,,,0.00,835,Wunderground v.1.15,2013-01-13 18:40:00,
2013-01-13 12:45:00,69.6,55.6,29.71,NE,45,7.0,-999.0,61,0.00,,,0.00,835,Wunderground v.1.15,2013-01-13 18:45:00,
2013-01-13 12:50:00,70.0,55.9,29.71,NNE,23,5.0,-999.0,61,0.00,,,0.00,828,Wunderground v.1.15,2013-01-13 18:50:00,
2013-01-13 12:55:00,69.9,55.4,29.71,ENE,68,4.0,-999.0,60,0.00,,,0.00,819,Wunderground v.1.15,2013-01-13 18:55:00,
2013-01-13 13:00:00,70.3,55.8,29.70,NNE,23,3.0,-999.0,60,0.00,,,0.00,815,Wunderground v.1.15,2013-01-13 19:00:00,
2013-01-13 13:05:00,70.4,55.8,29.70,NNE,23,2.0,-999.0,60,0.00,,,0.00,810,Wunderground v.1.15,2013-01-13 19:05:00,
2013-01-13 13:10:00,69.6,55.1,29.70,North,0,8.0,-999.0,60,0.00,,,0.00,800,Wunderground v.1.15,2013-01-13 19:10:00,
2013-01-13 13:15:00,69.7,55.2,29.70,NNE,23,5.0,-999.0,60,0.00,,,0.00,795,Wunderground v.1.15,2013-01-13 19:15:00,
2013-01-13 13:20:00,69.7,54.7,29.70,North,0,8.0,-999.0,59,0.00,,,0.00,794,Wunderground v.1.15,2013-01-13 19:20:00,
2013-01-13 13:25:00,69.3,55.3,29.70,North,0,8.0,-999.0,61,0.00,,,0.00,786,Wunderground v.1.15,2013-01-13 19:25:00,
2013-01-13 13:30:00,69.5,55.0,29.71,NE,45,6.0,-999.0,60,0.00,,,0.00,773,Wunderground v.1.15,2013-01-13 19:30:00,
2013-01-13 13:35:00,69.8,55.3,29.70,NNE,23,4.0,-999.0,60,0.00,,,0.00,719,Wunderground v.1.15,2013-01-13 19:35:00,
2013-01-13 13:40:00,69.8,55.7,29.70,NE,45,5.0,-999.0,61,0.00,,,0.00,750,Wunderground v.1.15,2013-01-13 19:40:00,
2013-01-13 13:45:00,70.1,56.0,29.70,NE,45,6.0,-999.0,61,0.00,,,0.00,737,Wunderground v.1.15,2013-01-13 19:45:00,
2013-01-13 13:50:00,69.8,55.7,29.70,NNE,23,5.0,-999.0,61,0.00,,,0.00,716,Wunderground v.1.15,2013-01-13 19:50:00,
2013-01-13 13:55:00,69.5,55.9,29.70,NE,45,5.0,-999.0,62,0.00,,,0.00,706,Wunderground v.1.15,2013-01-13 19:55:00,
2013-01-13 14:00:00,69.7,56.1,29.70,NNE,23,4.0,-999.0,62,0.00,,,0.00,691,Wunderground v.1.15,2013-01-13 20:00:00,
2013-01-13 14:05:00,69.8,56.6,29.70,NE,45,3.0,-999.0,63,0.00,,,0.00,679,Wunderground v.1.15,2013-01-13 20:05:00,
2013-01-13 14:10:00,69.4,57.1,29.70,ENE,68,5.0,-999.0,65,0.00,,,0.00,661,Wunderground v.1.15,2013-01-13 20:10:00,
2013-01-13 14:15:00,69.2,56.5,29.70,NE,45,6.0,-999.0,64,0.00,,,0.00,650,Wunderground v.1.15,2013-01-13 20:15:00,
2013-01-13 14:20:00,68.4,56.6,29.70,ENE,68,8.0,-999.0,66,0.00,,,0.00,640,Wunderground v.1.15,2013-01-13 20:20:00,
2013-01-13 14:25:00,68.6,57.2,29.70,NNE,23,2.0,-999.0,67,0.00,,,0.00,622,Wunderground v.1.15,2013-01-13 20:25:00,
2013-01-13 14:30:00,68.6,57.2,29.70,NNE,23,3.0,-999.0,67,0.00,,,0.00,609,Wunderground v.1.15,2013-01-13 20:30:00,
2013-01-13 14:35:00,68.7,57.3,29.70,NNE,23,3.0,-999.0,67,0.00,,,0.00,592,Wunderground v.1.15,2013-01-13 20:35:00,
2013-01-13 14:40:00,68.0,57.4,29.69,NNE,23,7.0,-999.0,69,0.00,,,0.00,579,Wunderground v.1.15,2013-01-13 20:40:00,
2013-01-13 14:45:00,67.6,57.5,29.69,NNE,23,7.0,-999.0,70,0.00,,,0.00,565,Wunderground v.1.15,2013-01-13 20:45:00,
2013-01-13 14:50:00,67.6,57.5,29.69,NNE,23,4.0,-999.0,70,0.00,,,0.00,536,Wunderground v.1.15,2013-01-13 20:50:00,
2013-01-13 14:55:00,67.5,57.8,29.69,NNE,23,4.0,-999.0,71,0.00,,,0.00,534,Wunderground v.1.15,2013-01-13 20:55:00,
2013-01-13 15:00:00,67.5,57.4,29.69,NNE,23,5.0,-999.0,70,0.00,,,0.00,532,Wunderground v.1.15,2013-01-13 21:00:00,
2013-01-13 15:05:00,66.8,57.1,29.69,North,0,6.0,-999.0,71,0.00,,,0.00,185,Wunderground v.1.15,2013-01-13 21:05:00,
2013-01-13 15:10:00,66.5,57.2,29.69,North,0,9.0,-999.0,72,0.00,,,0.00,472,Wunderground v.1.15,2013-01-13 21:10:00,
2013-01-13 15:15:00,66.1,57.2,29.69,North,0,9.0,-999.0,73,0.00,,,0.00,476,Wunderground v.1.15,2013-01-13 21:15:00,
2013-01-13 15:20:00,66.0,57.5,29.69,North,0,7.0,-999.0,74,0.00,,,0.00,472,Wunderground v.1.15,2013-01-13 21:20:00,
2013-01-13 15:25:00,65.9,57.0,29.70,North,0,10.0,-999.0,73,0.00,,,0.00,462,Wunderground v.1.15,2013-01-13 21:25:00,
2013-01-13 15:30:00,65.7,57.2,29.69,North,0,5.0,-999.0,74,0.00,,,0.00,294,Wunderground v.1.15,2013-01-13 21:30:00,
2013-01-13 15:35:00,65.6,57.1,29.70,North,0,4.0,-999.0,74,0.00,,,0.00,349,Wunderground v.1.15,2013-01-13 21:35:00,
2013-01-13 15:40:00,65.6,57.1,29.70,ENE,68,3.0,-999.0,74,0.00,,,0.00,425,Wunderground v.1.15,2013-01-13 21:40:00,
2013-01-13 15:45:00,65.4,56.9,29.70,NE,45,5.0,-999.0,74,0.00,,,0.00,261,Wunderground v.1.15,2013-01-13 21:45:00,
2013-01-13 15:50:00,65.2,56.7,29.69,ESE,113,3.0,-999.0,74,0.00,,,0.00,275,Wunderground v.1.15,2013-01-13 21:50:00,
2013-01-13 15:55:00,65.4,57.3,29.70,East,90,3.0,-999.0,75,0.00,,,0.00,332,Wunderground v.1.15,2013-01-13 21:55:00,
2013-01-13 16:00:00,65.6,57.5,29.70,East,90,1.0,-999.0,75,0.00,,,0.00,321,Wunderground v.1.15,2013-01-13 22:00:00,
2013-01-13 16:05:00,65.7,57.2,29.70,East,90,2.0,-999.0,74,0.00,,,0.00,321,Wunderground v.1.15,2013-01-13 22:05:00,
2013-01-13 16:10:00,65.8,57.7,29.70,ESE,113,1.0,-999.0,75,0.00,,,0.00,265,Wunderground v.1.15,2013-01-13 22:10:00,
2013-01-13 16:15:00,65.8,57.3,29.70,East,90,1.0,-999.0,74,0.00,,,0.00,249,Wunderground v.1.15,2013-01-13 22:15:00,
2013-01-13 16:20:00,65.6,57.1,29.70,North,0,1.0,-999.0,74,0.00,,,0.00,176,Wunderground v.1.15,2013-01-13 22:20:00,
2013-01-13 16:25:00,65.4,57.3,29.71,ESE,113,0.0,-999.0,75,0.00,,,0.00,132,Wunderground v.1.15,2013-01-13 22:25:00,
2013-01-13 16:30:00,65.0,57.2,29.71,SE,135,4.0,-999.0,76,0.00,,,0.00,130,Wunderground v.1.15,2013-01-13 22:30:00,
2013-01-13 16:35:00,64.2,57.2,29.72,East,90,4.0,-999.0,78,0.00,,,0.00,70,Wunderground v.1.15,2013-01-13 22:35:00,
2013-01-13 16:40:00,63.8,57.2,29.71,ESE,113,4.0,-999.0,79,0.00,,,0.00,81,Wunderground v.1.15,2013-01-13 22:40:00,
2013-01-13 16:45:00,63.3,57.4,29.71,NNE,23,5.0,-999.0,81,0.00,,,0.00,66,Wunderground v.1.15,2013-01-13 22:45:00,
2013-01-13 16:50:00,62.8,57.2,29.71,NE,45,6.0,-999.0,82,0.00,,,0.00,40,Wunderground v.1.15,2013-01-13 22:50:00,
2013-01-13 16:55:00,62.5,57.3,29.71,NE,45,7.0,-999.0,83,0.00,,,0.00,42,Wunderground v.1.15,2013-01-13 22:55:00,
2013-01-13 17:00:00,62.2,57.0,29.71,NNE,23,3.0,-999.0,83,0.00,,,0.00,31,Wunderground v.1.15,2013-01-13 23:00:00,
2013-01-13 17:05:00,62.1,57.2,29.71,NE,45,4.0,-999.0,84,0.00,,,0.00,32,Wunderground v.1.15,2013-01-13 23:05:00,
2013-01-13 17:10:00,61.9,57.0,29.72,NE,45,6.0,-999.0,84,0.00,,,0.00,23,Wunderground v.1.15,2013-01-13 23:10:00,
2013-01-13 17:15:00,61.7,57.1,29.72,NE,45,4.0,-999.0,85,0.00,,,0.00,19,Wunderground v.1.15,2013-01-13 23:15:00,
2013-01-13 17:20:00,61.5,57.3,29.72,NE,45,6.0,-999.0,86,0.00,,,0.00,13,Wunderground v.1.15,2013-01-13 23:20:00,
2013-01-13 17:25:00,61.3,57.1,29.71,NE,45,3.0,-999.0,86,0.00,,,0.00,9,Wunderground v.1.15,2013-01-13 23:25:00,
2013-01-13 17:30:00,61.0,57.1,29.72,NE,45,6.0,-999.0,87,0.00,,,0.00,5,Wunderground v.1.15,2013-01-13 23:30:00,
2013-01-13 17:35:00,60.8,56.9,29.72,NNE,23,3.0,-999.0,87,0.00,,,0.00,0,Wunderground v.1.15,2013-01-13 23:35:00,
2013-01-13 17:40:00,60.8,57.2,29.72,NE,45,3.0,-999.0,88,0.00,,,0.00,0,Wunderground v.1.15,2013-01-13 23:40:00,
2013-01-13 17:45:00,60.6,57.0,29.72,NE,45,3.0,-999.0,88,0.00,,,0.00,0,Wunderground v.1.15,2013-01-13 23:45:00,
2013-01-13 17:50:00,60.5,56.9,29.71,NE,45,6.0,-999.0,88,0.00,,,0.00,0,Wunderground v.1.15,2013-01-13 23:50:00,
2013-01-13 17:55:00,60.4,56.8,29.72,NNE,23,2.0,-999.0,88,0.00,,,0.00,0,Wunderground v.1.15,2013-01-13 23:55:00,
2013-01-13 18:00:00,60.4,56.8,29.72,North,0,2.0,-999.0,88,0.00,,,0.00,0,Wunderground v.1.15,2013-01-14 00:00:00,
2013-01-13 18:05:00,60.4,56.5,29.72,SE,135,3.0,-999.0,87,0.00,,,0.00,0,Wunderground v.1.15,2013-01-14 00:05:00,
2013-01-13 18:10:00,60.5,56.6,29.72,SW,225,1.0,-999.0,87,0.00,,,0.00,0,Wunderground v.1.15,2013-01-14 00:10:00,
2013-01-13 18:15:00,60.6,56.7,29.71,ESE,113,1.0,-999.0,87,0.00,,,0.00,0,Wunderground v.1.15,2013-01-14 00:15:00,
2013-01-13 18:20:00,60.6,56.7,29.71,SE,135,2.0,-999.0,87,0.00,,,0.00,0,Wunderground v.1.15,2013-01-14 00:20:00,
2013-01-13 18:25:00,60.5,56.6,29.71,North,0,3.0,-999.0,87,0.00,,,0.00,0,Wunderground v.1.15,2013-01-14 00:25:00,
2013-01-13 18:30:00,60.4,56.5,29.72,North,0,1.0,-999.0,87,0.00,,,0.00,0,Wunderground v.1.15,2013-01-14 00:30:00,
2013-01-13 18:35:00,60.3,56.4,29.72,NE,45,4.0,-999.0,87,0.00,,,0.00,0,Wunderground v.1.15,2013-01-14 00:35:00,
2013-01-13 18:40:00,60.3,56.4,29.72,NNE,23,2.0,-999.0,87,0.00,,,0.00,0,Wunderground v.1.15,2013-01-14 00:40:00,
2013-01-13 18:45:00,60.3,56.4,29.72,ENE,68,2.0,-999.0,87,0.00,,,0.00,0,Wunderground v.1.15,2013-01-14 00:45:00,
2013-01-13 18:50:00,60.2,56.3,29.72,NW,315,2.0,-999.0,87,0.00,,,0.00,0,Wunderground v.1.15,2013-01-14 00:50:00,
2013-01-13 18:55:00,60.2,56.3,29.73,NW,315,0.0,-999.0,87,0.00,,,0.00,0,Wunderground v.1.15,2013-01-14 00:55:00,
2013-01-13 19:00:00,60.0,56.1,29.73,North,0,2.0,-999.0,87,0.00,,,0.00,0,Wunderground v.1.15,2013-01-14 01:00:00,
2013-01-13 19:05:00,59.7,55.8,29.73,NNE,23,4.0,-999.0,87,0.00,,,0.00,0,Wunderground v.1.15,2013-01-14 01:05:00,
2013-01-13 19:10:00,59.2,55.3,29.74,NE,45,8.0,-999.0,87,0.00,,,0.00,0,Wunderground v.1.15,2013-01-14 01:10:00,
2013-01-13 19:15:00,58.9,55.4,29.74,NE,45,5.0,-999.0,88,0.00,,,0.00,0,Wunderground v.1.15,2013-01-14 01:15:00,
2013-01-13 19:20:00,58.9,55.0,29.73,SE,135,2.0,-999.0,87,0.00,,,0.00,0,Wunderground v.1.15,2013-01-14 01:20:00,
2013-01-13 19:25:00,58.9,55.0,29.74,SE,135,3.0,-999.0,87,0.00,,,0.00,0,Wunderground v.1.15,2013-01-14 01:25:00,
2013-01-13 19:30:00,58.9,55.0,29.74,SE,135,2.0,-999.0,87,0.00,,,0.00,0,Wunderground v.1.15,2013-01-14 01:30:00,
2013-01-13 19:35:00,58.9,54.7,29.73,SE,135,4.0,-999.0,86,0.00,,,0.00,0,Wunderground v.1.15,2013-01-14 01:35:00,
2013-01-13 19:40:00,58.9,54.7,29.74,SE,135,1.0,-999.0,86,0.00,,,0.00,0,Wunderground v.1.15,2013-01-14 01:40:00,
2013-01-13 19:45:00,58.9,54.7,29.74,ESE,113,0.0,-999.0,86,0.00,,,0.00,0,Wunderground v.1.15,2013-01-14 01:45:00,
2013-01-13 19:50:00,58.9,54.7,29.75,North,0,1.0,-999.0,86,0.00,,,0.00,0,Wunderground v.1.15,2013-01-14 01:50:00,
2013-01-13 19:55:00,58.7,54.8,29.75,East,90,1.0,-999.0,87,0.00,,,0.00,0,Wunderground v.1.15,2013-01-14 01:55:00,
2013-01-13 20:00:00,58.8,54.9,29.75,SE,135,4.0,-999.0,87,0.00,,,0.00,0,Wunderground v.1.15,2013-01-14 02:00:00,
2013-01-13 20:05:00,58.8,54.9,29.75,ENE,68,3.0,-999.0,87,0.00,,,0.00,0,Wunderground v.1.15,2013-01-14 02:05:00,
2013-01-13 20:10:00,58.6,54.7,29.76,East,90,2.0,-999.0,87,0.00,,,0.00,0,Wunderground v.1.15,2013-01-14 02:10:00,
2013-01-13 20:15:00,58.5,54.6,29.76,SE,135,1.0,-999.0,87,0.00,,,0.00,0,Wunderground v.1.15,2013-01-14 02:15:00,
2013-01-13 20:20:00,58.4,54.5,29.76,ESE,113,0.0,-999.0,87,0.00,,,0.00,0,Wunderground v.1.15,2013-01-14 02:20:00,
2013-01-13 20:25:00,58.4,54.9,29.76,ESE,113,4.0,-999.0,88,0.00,,,0.00,0,Wunderground v.1.15,2013-01-14 02:25:00,
2013-01-13 20:30:00,58.3,54.4,29.76,ESE,113,1.0,-999.0,87,0.00,,,0.00,0,Wunderground v.1.15,2013-01-14 02:30:00,
2013-01-13 20:35:00,58.4,54.9,29.75,SE,135,2.0,-999.0,88,0.00,,,0.00,0,Wunderground v.1.15,2013-01-14 02:35:00,
2013-01-13 20:40:00,58.4,54.5,29.76,South,180,2.0,-999.0,87,0.00,,,0.00,0,Wunderground v.1.15,2013-01-14 02:40:00,
2013-01-13 20:45:00,58.5,54.6,29.76,South,180,3.0,-999.0,87,0.00,,,0.00,0,Wunderground v.1.15,2013-01-14 02:45:00,
2013-01-13 20:50:00,58.6,54.7,29.76,ESE,113,1.0,-999.0,87,0.00,,,0.00,0,Wunderground v.1.15,2013-01-14 02:50:00,
2013-01-13 20:55:00,58.6,54.7,29.76,SE,135,0.0,-999.0,87,0.00,,,0.00,0,Wunderground v.1.15,2013-01-14 02:55:00,
2013-01-13 21:00:00,58.6,54.7,29.76,ESE,113,0.0,-999.0,87,0.00,,,0.00,0,Wunderground v.1.15,2013-01-14 03:00:00,
2013-01-13 21:05:00,58.5,54.6,29.76,ESE,113,0.0,-999.0,87,0.00,,,0.00,0,Wunderground v.1.15,2013-01-14 03:05:00,
2013-01-13 21:10:00,58.2,54.3,29.76,NE,45,0.0,-999.0,87,0.00,,,0.00,0,Wunderground v.1.15,2013-01-14 03:10:00,
2013-01-13 21:15:00,58.1,54.2,29.76,N/A,-737280,0.0,-999.0,87,0.00,,,0.00,0,Wunderground v.1.15,2013-01-14 03:15:00,
2013-01-13 21:20:00,58.0,54.5,29.76,N/A,-737280,0.0,-999.0,88,0.00,,,0.00,0,Wunderground v.1.15,2013-01-14 03:20:00,
2013-01-13 21:25:00,58.1,54.6,29.76,NE,45,1.0,-999.0,88,0.00,,,0.00,0,Wunderground v.1.15,2013-01-14 03:25:00,
2013-01-13 21:30:00,58.5,54.6,29.76,SE,135,1.0,-999.0,87,0.00,,,0.00,0,Wunderground v.1.15,2013-01-14 03:30:00,
2013-01-13 21:35:00,58.7,54.5,29.76,ENE,68,1.0,-999.0,86,0.00,,,0.00,0,Wunderground v.1.15,2013-01-14 03:35:00,
2013-01-13 21:40:00,58.9,54.4,29.77,ENE,68,0.0,-999.0,85,0.00,,,0.00,0,Wunderground v.1.15,2013-01-14 03:40:00,
2013-01-13 21:45:00,58.9,54.4,29.77,South,180,1.0,-999.0,85,0.00,,,0.00,0,Wunderground v.1.15,2013-01-14 03:45:00,
2013-01-13 21:50:00,58.9,54.4,29.76,SSE,158,4.0,-999.0,85,0.00,,,0.00,0,Wunderground v.1.15,2013-01-14 03:50:00,
2013-01-13 21:55:00,59.2,54.4,29.76,SSE,158,3.0,-999.0,84,0.00,,,0.00,0,Wunderground v.1.15,2013-01-14 03:55:00,
2013-01-13 22:00:00,59.2,54.4,29.77,SSE,158,2.0,-999.0,84,0.00,,,0.00,0,Wunderground v.1.15,2013-01-14 04:00:00,
2013-01-13 22:05:00,59.2,54.4,29.77,East,90,1.0,-999.0,84,0.00,,,0.00,0,Wunderground v.1.15,2013-01-14 04:05:00,
2013-01-13 22:10:00,59.0,54.2,29.77,East,90,1.0,-999.0,84,0.00,,,0.00,0,Wunderground v.1.15,2013-01-14 04:10:00,
2013-01-13 22:15:00,58.9,54.1,29.77,ESE,113,2.0,-999.0,84,0.00,,,0.00,0,Wunderground v.1.15,2013-01-14 04:15:00,
2013-01-13 22:20:00,58.9,54.1,29.77,SE,135,4.0,-999.0,84,0.00,,,0.00,0,Wunderground v.1.15,2013-01-14 04:20:00,
2013-01-13 22:25:00,59.1,53.9,29.76,ESE,113,5.0,-999.0,83,0.00,,,0.00,0,Wunderground v.1.15,2013-01-14 04:25:00,
2013-01-13 22:30:00,59.3,53.8,29.76,ESE,113,2.0,-999.0,82,0.00,,,0.00,0,Wunderground v.1.15,2013-01-14 04:30:00,
2013-01-13 22:35:00,59.3,53.8,29.76,ENE,68,1.0,-999.0,82,0.00,,,0.00,0,Wunderground v.1.15,2013-01-14 04:35:00,
2013-01-13 22:40:00,59.2,53.7,29.76,ESE,113,2.0,-999.0,82,0.00,,,0.00,0,Wunderground v.1.15,2013-01-14 04:40:00,
2013-01-13 22:45:00,58.9,54.1,29.76,East,90,5.0,-999.0,84,0.00,,,0.00,0,Wunderground v.1.15,2013-01-14 04:45:00,
2013-01-13 22:50:00,58.9,54.1,29.76,SE,135,5.0,-999.0,84,0.00,,,0.00,0,Wunderground v.1.15,2013-01-14 04:50:00,
2013-01-13 22:55:00,58.9,54.1,29.76,SE,135,5.0,-999.0,84,0.00,,,0.00,0,Wunderground v.1.15,2013-01-14 04:55:00,
2013-01-13 23:00:00,58.9,54.4,29.76,ESE,113,5.0,-999.0,85,0.00,,,0.00,0,Wunderground v.1.15,2013-01-14 05:00:00,
2013-01-13 23:05:00,58.9,54.7,29.76,ESE,113,6.0,-999.0,86,0.00,,,0.00,0,Wunderground v.1.15,2013-01-14 05:05:00,
2013-01-13 23:10:00,58.4,54.5,29.77,SE,135,3.0,-999.0,87,0.00,,,0.00,0,Wunderground v.1.15,2013-01-14 05:10:00,
2013-01-13 23:15:00,58.1,54.2,29.77,SE,135,5.0,-999.0,87,0.00,,,0.00,0,Wunderground v.1.15,2013-01-14 05:15:00,
2013-01-13 23:20:00,58.0,54.2,29.77,ESE,113,6.0,-999.0,87,0.00,,,0.00,0,Wunderground v.1.15,2013-01-14 05:20:00,
2013-01-13 23:25:00,58.2,54.3,29.77,SE,135,6.0,-999.0,87,0.00,,,0.00,0,Wunderground v.1.15,2013-01-14 05:25:00,
2013-01-13 23:30:00,58.4,54.5,29.76,SE,135,8.0,-999.0,87,0.00,,,0.00,0,Wunderground v.1.15,2013-01-14 05:30:00,
2013-01-13 23:35:00,58.3,54.4,29.77,SE,135,7.0,-999.0,87,0.00,,,0.00,0,Wunderground v.1.15,2013-01-14 05:35:00,
2013-01-13 23:40:00,58.1,54.2,29.76,ESE,113,6.0,-999.0,87,0.00,,,0.00,0,Wunderground v.1.15,2013-01-14 05:40:00,
2013-01-13 23:45:00,57.9,54.4,29.76,East,90,5.0,-999.0,88,0.00,,,0.00,0,Wunderground v.1.15,2013-01-14 05:45:00,
2013-01-13 23:50:00,57.7,54.2,29.76,SE,135,3.0,-999.0,88,0.00,,,0.00,0,Wunderground v.1.15,2013-01-14 05:50:00,
2013-01-13 23:55:00,57.7,54.2,29.76,East,90,0.0,-999.0,88,0.00,,,0.00,0,Wunderground v.1.15,2013-01-14 05:55:00,